TimeCDT,TemperatureF,Dew PointF,Humidity,Sea Level PressureIn,VisibilityMPH,Wind Direction,Wind SpeedMPH,Gust SpeedMPH,PrecipitationIn,Events,Conditions,WindDirDegrees,DateUTC
12:53 AM,44.1,21.9,42,30.02,10.0,ESE,8.1,-,N/A,,Clear,110,2013-03-12 05:53:00
1:53 AM,39.9,21.9,49,30.06,10.0,South,5.8,-,N/A,,Clear,190,2013-03-12 06:53:00
2:53 AM,41.0,21.9,47,30.06,10.0,East,5.8,-,N/A,,Clear,90,2013-03-12 07:53:00
3:53 AM,41.0,21.0,45,30.08,10.0,ENE,4.6,-,N/A,,Clear,60,2013-03-12 08:53:00
4:53 AM,39.9,21.0,47,30.10,10.0,Calm,Calm,-,N/A,,Clear,0,2013-03-12 09:53:00
5:53 AM,39.9,19.0,43,30.13,10.0,Calm,Calm,-,N/A,,Clear,0,2013-03-12 10:53:00
6:53 AM,35.1,23.0,61,30.18,10.0,North,10.4,-,N/A,,Clear,10,2013-03-12 11:53:00
7:53 AM,35.1,21.9,59,30.21,10.0,NNE,6.9,-,N/A,,Clear,30,2013-03-12 12:53:00
8:53 AM,39.9,24.1,53,30.22,10.0,ESE,3.5,-,N/A,,Clear,110,2013-03-12 13:53:00
9:53 AM,48.9,21.0,33,30.24,10.0,Calm,Calm,-,N/A,,Clear,0,2013-03-12 14:53:00
10:53 AM,52.0,27.0,38,30.25,10.0,NE,5.8,-,N/A,,Clear,50,2013-03-12 15:53:00
11:53 AM,55.0,32.0,42,30.26,10.0,NNE,10.4,18.4,N/A,,Clear,30,2013-03-12 16:53:00
12:53 PM,55.9,33.1,42,30.27,10.0,North,12.7,-,N/A,,Clear,350,2013-03-12 17:53:00
1:53 PM,55.9,35.1,45,30.26,10.0,NNE,6.9,-,N/A,,Partly Cloudy,20,2013-03-12 18:53:00
2:53 PM,57.0,34.0,42,30.25,10.0,NNW,12.7,-,N/A,,Scattered Clouds,340,2013-03-12 19:53:00
3:53 PM,57.9,32.0,37,30.25,10.0,NW,11.5,-,N/A,,Partly Cloudy,320,2013-03-12 20:53:00
4:53 PM,59.0,30.9,35,30.24,10.0,North,11.5,23.0,N/A,,Partly Cloudy,350,2013-03-12 21:53:00
5:53 PM,57.9,26.1,30,30.26,10.0,North,11.5,-,N/A,,Clear,360,2013-03-12 22:53:00
6:53 PM,55.9,25.0,30,30.27,10.0,NNW,6.9,-,N/A,,Clear,340,2013-03-12 23:53:00
7:53 PM,50.0,25.0,38,30.30,10.0,NNW,5.8,-,N/A,,Clear,330,2013-03-13 00:53:00
8:53 PM,48.0,26.1,42,30.32,10.0,NNW,4.6,-,N/A,,Clear,330,2013-03-13 01:53:00
9:53 PM,48.0,26.1,42,30.33,10.0,NNW,4.6,-,N/A,,Clear,330,2013-03-13 02:53:00
10:53 PM,42.1,26.1,53,30.35,10.0,Calm,Calm,-,N/A,,Clear,0,2013-03-13 03:53:00
11:53 PM,39.0,28.0,65,30.36,10.0,Calm,Calm,-,N/A,,Clear,0,2013-03-13 04:53:00